Taiki Maru — JI3464 — position and weather

sailwx.info

Track history (hours):
 
Tides and Currents Weather Stations Pressure Air Temp Water Temp Dewpoint Dewpoint Depression Visibility Wind Speed Wind Dir Waves Ship Positions

Taiki Maru

Last reported at 2014-Jul-28 14:21 UTC. Time now 2014-Jul-29 18:55 UTC.
Position N 34°04' E 134°55'.

Length 93 m; draft 5.2 m.

Type: Cargo ship. MMSI: 431300622.

Date/timePositionNaut miles runAvg speedWind from/ knotsBaromVisibWave heightAir tempDewpointWater temp
2014-Jul-28 14:21N 34°04' E 134°55'1113.9
2014-Jul-28 13:33N 34°15' E 134°58'1211.9
2014-Jul-28 12:33N 34°25' E 135°04'1414.3
2014-Jul-28 11:33N 34°35' E 135°17'9 9.1
2014-Jul-28 10:31N 34°40' E 135°27'0 0.0
2014-Jul-28 09:31N 34°40' E 135°27'0 0.0
2014-Jul-28 08:25N 34°40' E 135°27'0 0.0
2014-Jul-28 07:25N 34°40' E 135°27'0 0.0
2014-Jul-28 06:25N 34°40' E 135°27'0 0.0
2014-Jul-28 05:31N 34°40' E 135°27'0 0.0
2014-Jul-28 04:31N 34°40' E 135°27'0 0.0
2014-Jul-28 03:31N 34°40' E 135°27'0 0.0
2014-Jul-28 02:19N 34°40' E 135°27'0 0.0
2014-Jul-28 01:19N 34°40' E 135°27'0 0.3
2014-Jul-28 00:33N 34°40' E 135°27'7 7.0
2014-Jul-27 23:33N 34°36' E 135°19'0 0.3
2014-Jul-27 22:32N 34°36' E 135°19'0 0.0
2014-Jul-27 21:33N 34°36' E 135°19'0 0.0
2014-Jul-27 20:33N 34°36' E 135°19'8 8.1
2014-Jul-27 19:32N 34°30' E 135°13'1211.7
2014-Jul-27 18:32N 34°21' E 135°03'1010.5
2014-Jul-27 17:33N 34°11' E 134°59'  
2014-Jul-25 05:12N 34°57' E 139°28'812.3
2014-Jul-25 04:34N 35°02' E 139°36'1413.6
2014-Jul-25 03:33N 35°13' E 139°46'1212.5
2014-Jul-25 02:33N 35°25' E 139°44'1010.3
2014-Jul-25 01:33N 35°35' E 139°48'3 3.4
2014-Jul-25 00:31N 35°38' E 139°45'0 0.0
2014-Jul-24 23:31N 35°38' E 139°45'3 3.0
2014-Jul-24 22:33N 35°36' E 139°47'5 5.3
2014-Jul-24 21:32N 35°34' E 139°54'0 0.1
2014-Jul-24 20:32N 35°34' E 139°53'0 0.1
2014-Jul-24 19:32N 35°34' E 139°54'0 0.0
2014-Jul-24 18:32N 35°34' E 139°54'0 0.0
2014-Jul-24 17:32N 35°34' E 139°54'0 0.0
2014-Jul-24 16:32N 35°34' E 139°54'0 0.0
2014-Jul-24 15:32N 35°34' E 139°54'0 0.0
2014-Jul-24 14:29N 35°34' E 139°54'0 0.1
2014-Jul-24 13:32N 35°34' E 139°54'0 0.1
2014-Jul-24 12:32N 35°34' E 139°53'0 0.0
2014-Jul-24 11:33N 35°34' E 139°53'9 9.4
2014-Jul-24 10:34N 35°26' E 139°47'6 6.0
2014-Jul-24 09:33N 35°29' E 139°40'0 0.0
2014-Jul-24 08:33N 35°29' E 139°40'0 0.0
2014-Jul-24 07:33N 35°29' E 139°40'0 0.0
2014-Jul-24 06:33N 35°29' E 139°40'0 0.0
2014-Jul-24 05:33N 35°29' E 139°40'0 0.0
2014-Jul-24 04:33N 35°29' E 139°40'0 0.0
2014-Jul-24 03:33N 35°29' E 139°40'2 1.9
2014-Jul-24 02:33N 35°27' E 139°41'2 1.5
2014-Jul-24 01:33N 35°26' E 139°42'4 3.7
2014-Jul-24 00:34N 35°22' E 139°43'1212.3
2014-Jul-23 23:34N 35°10' E 139°47'1312.6
2014-Jul-23 22:33N 34°58' E 139°42'1010.0
2014-Jul-23 21:33N 34°51' E 139°50'1110.5
2014-Jul-23 20:33N 34°53' E 140°03'10 9.5
2014-Jul-23 19:33N 34°59' E 140°12'9 9.5
2014-Jul-23 18:33N 35°04' E 140°22'10 9.5
2014-Jul-23 17:33N 35°10' E 140°31'1411.7
2014-Jul-23 16:22N 35°19' E 140°44'1012.3
2014-Jul-23 15:33N 35°27' E 140°50'1312.6
2014-Jul-23 14:33N 35°38' E 140°59'1312.5
2014-Jul-23 13:33N 35°50' E 140°60'1413.4
2014-Jul-23 12:32N 36°04' E 140°58'1813.0
2014-Jul-23 11:11N 36°22' E 140°55'1013.2
2014-Jul-23 10:26N 36°31' E 140°55'  
2014-Jul-18 20:29N 36°06' E 140°58'1212.6
2014-Jul-18 19:33N 35°54' E 140°59'1312.9
2014-Jul-18 18:32N 35°41' E 140°60'1312.2
2014-Jul-18 17:30N 35°30' E 140°52'2814.0
2014-Jul-18 15:32N 35°09' E 140°30'1413.2
2014-Jul-18 14:29N 35°00' E 140°17'  
Track history (hours):
 
Tides and Currents Weather Stations Pressure Air Temp Water Temp Dewpoint Dewpoint Depression Visibility Wind Speed Wind Dir Waves Ship Positions

Taiki Maru

Last reported at 2014-Jul-28 14:21 UTC. Time now 2014-Jul-29 18:55 UTC.
Position N 34°04' E 134°55'.

Length 93 m; draft 5.2 m.

Type: Cargo ship. MMSI: 431300622.

Date/timePositionNaut miles runAvg speedWind from/ knotsBaromVisibWave heightAir tempDewpointWater temp
2014-Jul-28 14:21N 34°04' E 134°55'1113.9
2014-Jul-28 13:33N 34°15' E 134°58'1211.9
2014-Jul-28 12:33N 34°25' E 135°04'1414.3
2014-Jul-28 11:33N 34°35' E 135°17'9 9.1
2014-Jul-28 10:31N 34°40' E 135°27'0 0.0
2014-Jul-28 09:31N 34°40' E 135°27'0 0.0
2014-Jul-28 08:25N 34°40' E 135°27'0 0.0
2014-Jul-28 07:25N 34°40' E 135°27'0 0.0
2014-Jul-28 06:25N 34°40' E 135°27'0 0.0
2014-Jul-28 05:31N 34°40' E 135°27'0 0.0
2014-Jul-28 04:31N 34°40' E 135°27'0 0.0
2014-Jul-28 03:31N 34°40' E 135°27'0 0.0
2014-Jul-28 02:19N 34°40' E 135°27'0 0.0
2014-Jul-28 01:19N 34°40' E 135°27'0 0.3
2014-Jul-28 00:33N 34°40' E 135°27'7 7.0
2014-Jul-27 23:33N 34°36' E 135°19'0 0.3
2014-Jul-27 22:32N 34°36' E 135°19'0 0.0
2014-Jul-27 21:33N 34°36' E 135°19'0 0.0
2014-Jul-27 20:33N 34°36' E 135°19'8 8.1
2014-Jul-27 19:32N 34°30' E 135°13'1211.7
2014-Jul-27 18:32N 34°21' E 135°03'1010.5
2014-Jul-27 17:33N 34°11' E 134°59'  
2014-Jul-25 05:12N 34°57' E 139°28'812.3
2014-Jul-25 04:34N 35°02' E 139°36'1413.6
2014-Jul-25 03:33N 35°13' E 139°46'1212.5
2014-Jul-25 02:33N 35°25' E 139°44'1010.3
2014-Jul-25 01:33N 35°35' E 139°48'3 3.4
2014-Jul-25 00:31N 35°38' E 139°45'0 0.0
2014-Jul-24 23:31N 35°38' E 139°45'3 3.0
2014-Jul-24 22:33N 35°36' E 139°47'5 5.3
2014-Jul-24 21:32N 35°34' E 139°54'0 0.1
2014-Jul-24 20:32N 35°34' E 139°53'0 0.1
2014-Jul-24 19:32N 35°34' E 139°54'0 0.0
2014-Jul-24 18:32N 35°34' E 139°54'0 0.0
2014-Jul-24 17:32N 35°34' E 139°54'0 0.0
2014-Jul-24 16:32N 35°34' E 139°54'0 0.0
2014-Jul-24 15:32N 35°34' E 139°54'0 0.0
2014-Jul-24 14:29N 35°34' E 139°54'0 0.1
2014-Jul-24 13:32N 35°34' E 139°54'0 0.1
2014-Jul-24 12:32N 35°34' E 139°53'0 0.0
2014-Jul-24 11:33N 35°34' E 139°53'9 9.4
2014-Jul-24 10:34N 35°26' E 139°47'6 6.0
2014-Jul-24 09:33N 35°29' E 139°40'0 0.0
2014-Jul-24 08:33N 35°29' E 139°40'0 0.0
2014-Jul-24 07:33N 35°29' E 139°40'0 0.0
2014-Jul-24 06:33N 35°29' E 139°40'0 0.0
2014-Jul-24 05:33N 35°29' E 139°40'0 0.0
2014-Jul-24 04:33N 35°29' E 139°40'0 0.0
2014-Jul-24 03:33N 35°29' E 139°40'2 1.9
2014-Jul-24 02:33N 35°27' E 139°41'2 1.5
2014-Jul-24 01:33N 35°26' E 139°42'4 3.7
2014-Jul-24 00:34N 35°22' E 139°43'1212.3
2014-Jul-23 23:34N 35°10' E 139°47'1312.6
2014-Jul-23 22:33N 34°58' E 139°42'1010.0
2014-Jul-23 21:33N 34°51' E 139°50'1110.5
2014-Jul-23 20:33N 34°53' E 140°03'10 9.5
2014-Jul-23 19:33N 34°59' E 140°12'9 9.5
2014-Jul-23 18:33N 35°04' E 140°22'10 9.5
2014-Jul-23 17:33N 35°10' E 140°31'1411.7
2014-Jul-23 16:22N 35°19' E 140°44'1012.3
2014-Jul-23 15:33N 35°27' E 140°50'1312.6
2014-Jul-23 14:33N 35°38' E 140°59'1312.5
2014-Jul-23 13:33N 35°50' E 140°60'1413.4
2014-Jul-23 12:32N 36°04' E 140°58'1813.0
2014-Jul-23 11:11N 36°22' E 140°55'1013.2
2014-Jul-23 10:26N 36°31' E 140°55'  
2014-Jul-18 20:29N 36°06' E 140°58'1212.6
2014-Jul-18 19:33N 35°54' E 140°59'1312.9
2014-Jul-18 18:32N 35°41' E 140°60'1312.2
2014-Jul-18 17:30N 35°30' E 140°52'2814.0
2014-Jul-18 15:32N 35°09' E 140°30'1413.2
2014-Jul-18 14:29N 35°00' E 140°17'  

Dump ship's entire track history